Location: Blackrock Ranger Station
(36.0936°N, 118.2611°W)
Time: 19:34:33
(UTC-08:00)

AO-7 - Visible Passes

Search period start: 18 February 2026 00:00
Search period end: 28 February 2026 00:00
Orbit: 1440 x 1459 km, 102.0° (Epoch: 18 February)

Date Brightness Start Highest point End Pass type
(mag) Time Alt. Az. Time Alt. Az. Time Alt. Az.
18 Feb ? 05:50:01 10° NNE 05:58:04 50° ESE 06:06:05 10° S visible
18 Feb ? 18:39:49 10° SSW 18:46:43 29° W 18:53:42 10° NW visible
19 Feb ? 04:52:01 10° NE 04:57:33 19° E 05:03:03 10° SE visible
19 Feb ? 19:38:50 10° W 19:40:18 10° W 19:41:46 10° W visible
20 Feb ? 05:42:59 10° NNE 05:50:53 45° ESE 05:58:45 10° S visible
20 Feb ? 18:32:19 10° SSW 18:39:31 33° W 18:46:46 10° NW visible
21 Feb ? 04:45:24 10° NE 04:50:18 17° E 04:55:11 10° SE visible
21 Feb ? 19:29:48 10° WSW 19:33:01 13° W 19:36:16 10° WNW visible
22 Feb ? 05:35:59 10° NNE 05:43:43 40° E 05:51:23 10° SSE visible
22 Feb ? 18:24:52 10° SSW 18:32:18 37° W 18:39:49 10° NW visible
23 Feb ? 04:38:57 10° ENE 04:43:03 14° E 04:47:07 10° ESE visible
23 Feb ? 19:21:31 10° WSW 19:25:45 15° W 19:30:02 10° WNW visible
24 Feb ? 05:29:00 10° NE 05:36:31 36° E 05:43:58 10° SSE visible
24 Feb ? 18:17:27 10° S 18:25:07 41° W 18:32:51 10° NNW visible
25 Feb ? 04:32:50 10° ENE 04:35:47 12° E 04:38:45 10° ESE visible
25 Feb ? 19:13:31 10° SW 19:18:30 17° W 19:23:33 10° NW visible
26 Feb ? 05:22:04 10° NE 05:29:20 32° E 05:36:31 10° SSE visible
26 Feb ? 18:10:06 10° S 18:17:56 46° WSW 18:25:51 10° NNW visible
27 Feb ? 04:28:04 10° E 04:28:31 10° E 04:28:59 10° E visible
27 Feb ? 19:05:40 10° SW 19:11:15 20° W 19:16:55 10° NW visible
